Flag for Germany Weather past 2 weeks in Forchheim, Bavaria, Germany

Now
55 °F

Overcast.


Feels Like: 55 °F
Forecast: 44 / 58 °F
Wind: 3 mph from South

Location: Bamberg

Current Time: May 25, 2015 at 8:03:14 AM

Latest Report: May 25, 2015 at 7:00 AM


Visibility: 7 mi

Pressure: 29.99 "Hg

Humidity: 82%

Dew point: 50 °F

Location of ForchheimLocation

Historic Weather in Forchheim — Graph

°F

Forchheim temperature yesterday

Maximum temperature yesterday: 68 °F (at 4:00 PM)
Minimum temperature yesterday: 57 °F (at 6:00 AM)
Average temperature yesterday: 61 °F

Past Weeks' High & Low Weather Summary

 TemperatureHumidityPressure
High85 °F (May 12, 4:00 PM)96% (May 10, 7:00 AM)30.38 "Hg (May 10, 7:00 AM)
Low34 °F (May 22, 6:00 AM)24% (May 14, 6:00 PM)29.70 "Hg (May 18, 8:00 PM)
Average57 °F61%30.07 "Hg
* Reported May 10 7:00 AM — May 25 7:00 AM, Forchheim, Weather by CustomWeather, © 2015

Note: Actual official high and low records may vary slightly from our data, if they occured in-between our weather recording intervals... More about our weather records

Advertising

Forchheim weather history for previous 24 hours

 ConditionsComfort  
Time TempWeatherWind HumidityBarometerVisibility
7:00 AM
Mon, May 25
55 °FOvercast.3 mph82%29.99 "Hg7 mi
6:00 AM55 °FOvercast.2 mph83%30.00 "Hg7 mi
5:00 AM55 °FOvercast.2 mph84%30.00 "Hg7 mi
4:00 AM54 °FOvercast.2 mph87%30.01 "Hg7 mi
3:00 AM57 °FOvercast.2 mph79%30.01 "Hg9 mi
2:00 AM56 °FOvercast.2 mph80%30.03 "Hg9 mi
1:00 AM58 °FOvercast.2 mph74%30.04 "Hg13 mi
12:00 AM57 °FOvercast.1 mph75%30.05 "Hg16 mi
11:00 PM
Sun, May 24
59 °FOvercast.1 mph70%30.05 "Hg18 mi
10:00 PM59 °FOvercast.3 mph69%30.04 "Hg19 mi
9:00 PM61 °FOvercast.2 mph63%30.04 "Hg22 mi
8:00 PM63 °FOvercast.2 mph60%30.03 "Hg19 mi
7:00 PM65 °FOvercast.2 mph57%30.03 "Hg19 mi
6:00 PM65 °FOvercast.5 mph57%30.03 "Hg17 mi
5:00 PM67 °FOvercast.3 mph48%30.04 "Hg28 mi
4:00 PM68 °FOvercast.1 mph43%30.04 "Hg25 mi
3:00 PM68 °FOvercast.1 mph47%30.06 "Hg18 mi
2:00 PM66 °FOvercast.2 mph58%30.07 "Hg16 mi
1:00 PM63 °FOvercast.3 mph64%30.09 "Hg16 mi
12:00 PM62 °FOvercast.3 mph65%30.09 "Hg18 mi
11:00 AM63 °FOvercast.2 mph63%30.10 "Hg16 mi
10:00 AM60 °FOvercast.2 mph68%30.10 "Hg19 mi
9:00 AM59 °FOvercast.2 mph74%30.10 "Hg19 mi
8:00 AM57 °FOvercast.3 mph74%30.09 "Hg28 mi
Weather by CustomWeather, © 2015

See weather overviewHow to use our weather pages